Location: Blue Mountain Vista Observatory
(40.6992°N, 75.9422°W)
Time: 11:43:42
(UTC-04:00)

Amateur Radio Satellites - All Passes

Search period start: 31 October 2014 11:13
Search period end: 01 November 2014 11:13
Location: Blue Mountain Vista Observatory, 40.6992°N, 75.9422°W

Satellite Date Start Highest point End Downlink Frequencies (MHz)
Time Altitude Azimuth
HO-68 31 Oct 11:23:27 11:29:52 37° 297° (WNW) 11:36:16 435.675 MHz FM
UKube-1 31 Oct 11:29:09 11:33:12 38° 290° (WNW) 11:37:13 145.840 MHz, 145.915 MHz
PCSat 31 Oct 11:33:00 11:38:21 55° 57° (ENE) 11:43:39 145.825 MHz
ZACube-1 31 Oct 11:37:38 11:41:49 72° 285° (WNW) 11:45:56 437.345 MHz
Oscar 11 31 Oct 12:05:21 12:08:06 17° 295° (WNW) 12:10:50 145.825 FM, Beacon 2401.500 USB
SO-50 31 Oct 12:13:08 12:17:28 46° 308° (NW) 12:21:56 436.795 FM
ISS 31 Oct 12:18:06 12:20:40 20° 340° (NNW) 12:23:13 145.800 FM
FUNcube-1 31 Oct 12:21:12 12:24:35 24° 292° (WNW) 12:27:55 145.950 - 145.970 MHz USB
KITSAT 1 31 Oct 12:38:09 12:45:42 42° 311° (NW) 12:53:18 435.175 FM
Oscar 19 31 Oct 12:42:54 12:46:48 22° 65° (ENE) 12:50:42 437.125 CW, 437.150 USB
JAS-1B 31 Oct 12:43:53 12:48:16 23° 62° (ENE) 12:52:40 435.800 - 435.900 CW/SSB
Sapphire 31 Oct 12:54:59 12:59:50 34° 250° (WSW) 13:04:40 437.095 MHz 1200 baud AX-25 AFSK
UOSAT-12 31 Oct 12:57:15 13:01:43 51° 117° (ESE) 13:06:17 437.025 FM, 437.400 FM
PCSat 31 Oct 13:17:25 13:21:19 20° 254° (WSW) 13:25:11 145.825 MHz
AO-27 31 Oct 13:19:06 13:22:55 21° 63° (ENE) 13:26:44 436.795 MHz FM
Oscar 16 31 Oct 13:28:32 13:33:35 60° 73° (ENE) 13:38:39 437.025 USB, Beacon 2401.1428
Saudisat 1A 31 Oct 13:33:48 13:36:28 16° 41° (NE) 13:39:09 436.775 MHz
Gurwin Techsat 1B 31 Oct 13:35:02 13:38:06 16° 61° (ENE) 13:41:10 435.225 FM
TMSAT-1 31 Oct 13:42:08 13:44:36 13° 59° (ENE) 13:47:04 436.925 FM
ISS 31 Oct 13:56:46 13:58:20 13° 1° (N) 13:59:54 145.800 FM
Uribyol 2 31 Oct 14:01:22 14:06:25 52° 71° (ENE) 14:11:29 436.500 FM
AO-Echo 31 Oct 14:03:59 14:08:55 66° 74° (ENE) 14:14:02 ?
AO-7 31 Oct 14:09:06 14:13:07 15° 46° (NE) 14:17:09 29.400 - 29.500 MHz
ITAMSAT 1 31 Oct 14:09:15 14:14:21 58° 72° (ENE) 14:19:29 435.822 SSB
Oscar 19 31 Oct 14:20:56 14:25:50 45° 261° (W) 14:30:45 437.125 CW, 437.150 USB
JAS-1B 31 Oct 14:33:11 14:38:41 44° 261° (W) 14:44:08 435.800 - 435.900 CW/SSB
UOSAT-12 31 Oct 14:38:29 14:42:09 22° 316° (NW) 14:45:51 437.025 FM, 437.400 FM
KITSAT 1 31 Oct 14:39:46 14:43:41 14° 338° (NNW) 14:47:36 435.175 FM
AO-27 31 Oct 14:56:59 15:02:02 50° 260° (W) 15:07:08 436.795 MHz FM
Oscar 16 31 Oct 15:10:14 15:13:19 16° 269° (W) 15:16:24 437.025 USB, Beacon 2401.1428
Saudisat 1A 31 Oct 15:12:08 15:16:33 75° 239° (WSW) 15:20:57 436.775 MHz
Gurwin Techsat 1B 31 Oct 15:12:09 15:17:26 71° 258° (WSW) 15:22:46 435.225 FM
TMSAT-1 31 Oct 15:18:29 15:23:47 83° 257° (WSW) 15:29:08 436.925 FM
ISS 31 Oct 15:33:18 15:35:59 22° 21° (NNE) 15:38:39 145.800 FM
Uribyol 2 31 Oct 15:42:32 15:46:10 19° 267° (W) 15:49:49 436.500 FM
AO-Echo 31 Oct 15:45:35 15:48:11 14° 271° (W) 15:50:50 ?
ITAMSAT 1 31 Oct 15:50:53 15:54:12 17° 268° (W) 15:57:32 435.822 SSB
Uosat F 31 Oct 15:56:02 16:00:30 33° 68° (ENE) 16:04:59 435.120 FM
AO-7 31 Oct 15:56:11 16:04:18 64° 67° (ENE) 16:12:27 29.400 - 29.500 MHz
KITSAT 1 31 Oct 16:42:03 16:43:35 11° 10° (N) 16:45:07 435.175 FM
JAS-2 31 Oct 16:52:22 16:58:06 37° 65° (ENE) 17:04:31 435.800 - 435.900 CW/SSB, 435.910 FM
Hamsat 31 Oct 17:06:03 17:09:01 19° 67° (ENE) 17:12:00 145.90 MHz
ISS 31 Oct 17:09:37 17:12:57 69° 219° (SW) 17:16:16 145.800 FM
Uosat F 31 Oct 17:34:57 17:39:16 28° 264° (W) 17:43:36 435.120 FM
AO-7 31 Oct 17:50:46 17:57:33 28° 265° (W) 18:04:25 29.400 - 29.500 MHz
OPAL 31 Oct 18:03:51 18:08:32 41° 101° (E) 18:13:10 ?
KITSAT 1 31 Oct 18:36:02 18:42:33 26° 39° (NE) 18:49:02 435.175 FM
JAS-2 31 Oct 18:37:15 18:43:03 39° 265° (W) 18:49:35 435.800 - 435.900 CW/SSB, 435.910 FM
Hamsat 31 Oct 18:40:54 18:44:43 35° 263° (W) 18:48:34 145.90 MHz
SO-50 31 Oct 19:04:51 19:08:35 22° 44° (NE) 19:12:21 436.795 FM
SO-67 31 Oct 19:23:43 19:27:09 89° 258° (WSW) 19:30:36 435.3500 MHz FM
RS-15 31 Oct 19:42:23 19:50:00 22° 101° (E) 19:57:31 29.354 - 29.394 USB, Beacon 29.352 USB
OPAL 31 Oct 19:43:18 19:47:10 23° 297° (WNW) 19:51:01 ?
AO-40 31 Oct 19:53:24 22:21:11 22° 115° (ESE) 23:33:50 Beacon 2401.320
STRAND 1 31 Oct 20:00:15 20:05:26 81° 104° (ESE) 20:10:33 ?
HO-68 31 Oct 20:04:08 20:10:20 33° 62° (ENE) 20:16:34 435.675 MHz FM
KITSAT 1 31 Oct 20:30:52 20:38:59 87° 241° (WSW) 20:47:04 435.175 FM
SO-50 31 Oct 20:44:44 20:49:30 57° 242° (WSW) 20:54:17 436.795 FM
UKube-1 31 Oct 20:49:30 20:52:18 17° 64° (ENE) 20:55:06 145.840 MHz, 145.915 MHz
Oscar 10/S400 31 Oct 20:57:02 21:36:47 51° 203° (SSW) 05:44:40 145.825 - 145.975 CW/USB, Beacon 145.810 USB
Oscar 11 31 Oct 21:22:57 21:26:50 33° 70° (ENE) 21:30:43 145.825 FM, Beacon 2401.500 USB
UOSAT-12 31 Oct 21:27:09 21:31:39 41° 51° (NE) 21:36:03 437.025 FM, 437.400 FM
FUNcube-1 31 Oct 21:40:50 21:44:25 24° 68° (ENE) 21:47:57 145.950 - 145.970 MHz USB
STRAND 1 31 Oct 21:41:32 21:43:55 13° 300° (WNW) 21:46:17 ?
MaSat-1 31 Oct 21:48:54 21:52:22 30° 110° (ESE) 21:55:33 437.345 MHz
RS-15 31 Oct 21:49:46 22:00:48 89° 301° (WNW) 22:11:48 29.354 - 29.394 USB, Beacon 29.352 USB
HO-68 31 Oct 21:50:53 21:57:45 49° 260° (W) 22:04:42 435.675 MHz FM
UKube-1 31 Oct 22:23:56 22:28:06 45° 260° (W) 22:32:19 145.840 MHz, 145.915 MHz
KITSAT 1 31 Oct 22:28:29 22:33:13 17° 259° (W) 22:37:58 435.175 FM
ZACube-1 31 Oct 22:33:09 22:37:42 86° 76° (ENE) 22:42:11 437.345 MHz
Oscar 11 31 Oct 22:59:49 23:03:04 21° 266° (W) 23:06:19 145.825 FM, Beacon 2401.500 USB
UOSAT-12 31 Oct 23:07:50 23:11:32 23° 249° (WSW) 23:15:10 437.025 FM, 437.400 FM
FUNcube-1 31 Oct 23:16:33 23:20:37 32° 263° (W) 23:24:38 145.950 - 145.970 MHz USB
MaSat-1 31 Oct 23:25:00 23:27:45 19° 303° (WNW) 23:30:19 437.345 MHz
RS-15 01 Nov 00:05:29 00:14:47 31° 328° (NNW) 00:24:12 29.354 - 29.394 USB, Beacon 29.352 USB
Oscar 16 01 Nov 01:41:19 01:45:12 21° 94° (E) 01:49:04 437.025 USB, Beacon 2401.1428
Sapphire 01 Nov 01:53:20 01:58:04 32° 109° (ESE) 02:02:50 437.095 MHz 1200 baud AX-25 AFSK
AO-Echo 01 Nov 02:12:12 02:16:23 23° 93° (E) 02:20:31 ?
PCSat 01 Nov 02:14:19 02:19:33 54° 114° (ESE) 02:24:50 145.825 MHz
JAS-1B 01 Nov 02:14:34 02:21:37 50° 100° (E) 02:29:57 435.800 - 435.900 CW/SSB
Uribyol 2 01 Nov 02:15:26 02:19:02 19° 92° (E) 02:22:37 436.500 FM
ITAMSAT 1 01 Nov 02:23:18 02:27:12 21° 93° (E) 02:31:05 435.822 SSB
RS-15 01 Nov 02:24:49 02:32:12 19° 3° (N) 02:39:41 29.354 - 29.394 USB, Beacon 29.352 USB
Oscar 19 01 Nov 02:32:29 02:37:36 66° 102° (ESE) 02:42:40 437.125 CW, 437.150 USB
AO-27 01 Nov 03:10:10 03:15:21 60° 101° (E) 03:20:28 436.795 MHz FM
Oscar 16 01 Nov 03:19:53 03:24:44 44° 290° (WNW) 03:29:34 437.025 USB, Beacon 2401.1428
Gurwin Techsat 1B 01 Nov 03:28:46 03:33:54 48° 99° (E) 03:39:00 435.225 FM
TMSAT-1 01 Nov 03:34:51 03:39:51 40° 98° (E) 03:44:47 436.925 FM
Sapphire 01 Nov 03:36:25 03:41:24 36° 307° (NW) 03:46:25 437.095 MHz 1200 baud AX-25 AFSK
AO-Echo 01 Nov 03:50:16 03:55:18 44° 290° (WNW) 04:00:16 ?
Uribyol 2 01 Nov 03:53:46 03:58:48 52° 289° (WNW) 04:03:48 436.500 FM
PCSat 01 Nov 03:58:55 04:03:17 24° 312° (NW) 04:07:40 145.825 MHz
AO-7 01 Nov 03:59:30 04:05:12 20° 92° (E) 04:10:52 29.400 - 29.500 MHz
ITAMSAT 1 01 Nov 04:01:56 04:06:55 47° 290° (WNW) 04:11:51 435.822 SSB
JAS-1B 01 Nov 04:05:44 04:12:01 35° 294° (WNW) 04:19:20 435.800 - 435.900 CW/SSB
Oscar 19 01 Nov 04:13:21 04:16:23 16° 298° (WNW) 04:19:24 437.125 CW, 437.150 USB
RS-15 01 Nov 04:39:13 04:49:13 36° 37° (NE) 04:59:30 29.354 - 29.394 USB, Beacon 29.352 USB
PANSAT 01 Nov 04:48:54 04:50:25 12° 173° (S) 04:51:56 not established
AO-27 01 Nov 04:50:55 04:54:21 18° 298° (WNW) 04:57:46 436.795 MHz FM
Gurwin Techsat 1B 01 Nov 05:09:30 05:13:32 22° 296° (WNW) 05:17:33 435.225 FM
TMSAT-1 01 Nov 05:15:13 05:19:32 26° 294° (WNW) 05:23:50 436.925 FM
OPAL 01 Nov 05:18:20 05:23:25 74° 72° (ENE) 05:28:28 ?
Saudisat 1A 01 Nov 05:18:32 05:22:19 29° 114° (ESE) 05:26:09 436.775 MHz
STRAND 1 01 Nov 05:39:43 05:42:26 15° 60° (ENE) 05:45:11 ?
Uosat F 01 Nov 05:42:00 05:47:05 89° 104° (ESE) 05:52:07 435.120 FM
JAS-2 01 Nov 05:46:08 05:53:22 38° 95° (E) 06:00:17 435.800 - 435.900 CW/SSB, 435.910 FM
AO-7 01 Nov 05:50:28 05:58:50 84° 290° (WNW) 06:07:12 29.400 - 29.500 MHz
Hamsat 01 Nov 06:26:20 06:30:19 38° 98° (E) 06:34:17 145.90 MHz
PANSAT 01 Nov 06:28:08 06:29:49 12° 186° (S) 06:31:29 not established
RS-15 01 Nov 06:51:32 07:02:43 78° 242° (WSW) 07:14:24 29.354 - 29.394 USB, Beacon 29.352 USB
Saudisat 1A 01 Nov 06:57:56 07:01:49 30° 311° (NW) 07:05:45 436.775 MHz
OPAL 01 Nov 07:00:36 07:02:47 13° 268° (W) 07:04:58 ?
STRAND 1 01 Nov 07:15:52 07:20:59 74° 257° (WSW) 07:26:10 ?
Uosat F 01 Nov 07:23:24 07:25:05 12° 301° (WNW) 07:26:47 435.120 FM
JAS-2 01 Nov 07:30:58 07:38:23 47° 293° (WNW) 07:45:35 435.800 - 435.900 CW/SSB, 435.910 FM
MaSat-1 01 Nov 07:33:17 07:35:37 38° 61° (ENE) 07:37:51 437.345 MHz
AO-7 01 Nov 07:44:57 07:50:27 20° 309° (NW) 07:55:58 29.400 - 29.500 MHz
Hamsat 01 Nov 08:03:06 08:05:58 18° 293° (WNW) 08:08:50 145.90 MHz
SO-67 01 Nov 08:19:56 08:23:22 70° 283° (WNW) 08:26:47 435.3500 MHz FM
RS-15 01 Nov 09:06:42 09:13:16 18° 262° (W) 09:20:01 29.354 - 29.394 USB, Beacon 29.352 USB
KITSAT 1 01 Nov 09:09:31 09:12:13 12° 98° (E) 09:14:55 435.175 FM
HO-68 01 Nov 09:18:54 09:25:18 34° 97° (E) 09:31:39 435.675 MHz FM
ISS 01 Nov 09:51:21 09:54:30 44° 138° (SE) 09:57:42 145.800 FM
UKube-1 01 Nov 10:12:29 10:16:19 29° 97° (E) 10:20:07 145.840 MHz, 145.915 MHz
ZACube-1 01 Nov 10:24:04 10:26:38 16° 92° (E) 10:29:11 437.345 MHz
Sapphire 01 Nov 10:41:15 10:45:51 27° 49° (NE) 10:50:26 437.095 MHz 1200 baud AX-25 AFSK
Oscar 11 01 Nov 10:46:18 10:50:38 72° 102° (ESE) 10:54:55 145.825 FM, Beacon 2401.500 USB
SO-50 01 Nov 10:59:13 11:03:33 50° 117° (ESE) 11:08:01 436.795 FM
PCSat 01 Nov 11:02:32 11:07:41 41° 54° (NE) 11:12:46 145.825 MHz
FUNcube-1 01 Nov 11:05:33 11:09:36 47° 99° (E) 11:13:35 145.950 - 145.970 MHz USB
